Theta_e
318 311 309 309 299 292 288 291 292 295 295 297 301 302 301 301 302 296 316 330 342 345 348 349 350 352 352 353 352 352 350 349 348 346 344 342 341 339 339 336 334 334 335 336 337 338 339 339 341
316 314 310 300 292 287 288 291 293 295 298 301 301 299 301 302 310 317 318 338 344 346 348 349 347 351 352 352 352 351 349 348 348 346 344 341 340 338 337 336 333 333 334 336 336 337 335 337 339
314 311 303 296 288 287 288 291 294 297 300 299 298 303 303 304 310 314 323 340 344 346 347 346 346 350 351 351 351 350 349 348 347 345 343 341 338 337 336 334 332 331 331 333 335 335 334 336 336
307 305 299 292 287 289 292 294 296 296 297 301 301 301 308 315 313 319 326 341 341 345 346 344 347 350 350 350 349 348 349 347 346 345 342 339 337 337 335 333 331 329 328 329 330 330 330 330 330
303 298 292 290 287 291 291 295 296 296 295 296 299 298 307 316 320 324 327 340 337 342 344 343 345 348 349 349 349 349 348 347 345 344 341 338 337 336 334 333 331 328 325 325 325 323 322 322 323
298 294 288 286 288 291 292 297 297 294 295 298 299 298 300 309 318 322 327 330 338 339 342 344 339 341 344 346 347 347 347 346 345 344 340 338 337 336 335 334 333 330 326 322 320 318 318 318 319
295 290 287 289 289 291 295 296 295 294 294 295 301 297 300 306 315 324 327 332 337 340 342 342 341 339 338 340 341 342 344 343 343 342 341 339 337 336 335 335 333 332 328 324 323 322 320 318 317
296 292 289 288 290 290 295 295 297 296 294 299 299 296 297 302 312 324 325 317 317 319 331 337 339 339 341 338 334 336 339 340 340 338 335 333 333 333 332 330 332 330 329 327 325 322 322 321 318
296 289 286 288 288 292 295 294 296 297 297 297 298 297 299 304 315 320 319 315 310 310 312 318 339 336 338 340 334 333 334 335 334 332 329 327 330 330 329 328 330 329 329 328 327 324 322 319 319
294 288 290 291 291 292 295 295 296 294 294 294 296 299 301 302 310 314 312 306 304 304 308 311 317 334 337 339 335 338 337 337 334 332 330 329 329 327 325 323 325 325 325 328 326 323 319 314 310
293 289 292 293 295 296 295 294 296 294 291 295 296 298 299 300 302 303 301 301 302 304 308 310 312 315 334 335 334 334 336 336 333 331 330 327 324 323 322 321 319 319 317 318 317 313 312 311 310
290 295 295 297 297 296 295 296 294 294 294 298 298 299 298 298 299 300 300 301 303 305 307 312 314 313 329 327 326 327 326 326 328 331 329 326 323 323 320 319 317 316 316 315 314 310 309 308 309
291 294 296 297 298 296 297 295 295 294 295 297 298 299 298 297 298 299 301 303 303 303 305 310 313 320 322 321 319 318 317 318 319 326 329 327 323 319 317 313 315 314 313 313 310 307 303 301 302
294 295 296 297 297 297 295 294 296 294 295 296 297 296 296 297 297 298 301 301 302 304 305 311 317 318 317 315 314 312 312 312 313 316 320 320 318 315 313 310 309 308 308 305 300 297 296 295 297
295 292 294 295 295 296 296 293 293 295 295 295 295 294 295 296 297 298 299 300 302 302 305 306 308 312 311 310 309 308 309 309 310 310 312 313 312 309 307 303 299 299 300 297 293 292 290 290 293
291 290 287 294 295 295 295 289 295 295 294 293 293 291 293 294 296 298 298 300 300 300 301 303 308 307 306 306 305 305 305 306 305 306 305 305 304 302 298 296 293 295 295 293 290 289 287 287 289
289 285 287 292 295 294 292 290 294 293 293 292 291 291 292 292 294 296 297 298 298 298 298 301 303 303 302 301 301 300 300 299 299 299 298 297 296 295 294 293 291 292 291 290 288 287 285 284 286
286 286 287 288 292 291 289 290 293 293 293 293 291 291 291 291 293 295 296 297 297 296 295 296 299 299 299 298 296 295 294 294 294 294 294 294 293 292 291 290 289 289 288 286 286 285 285 283 284
289 288 287 289 294 291 290 291 294 293 292 291 291 291 291 292 293 294 295 295 294 294 296 297 296 297 297 296 294 293 291 291 290 291 291 291 291 290 289 287 286 286 285 283 284 284 283 283 283
289 288 288 290 293 291 291 290 292 292 292 294 294 293 292 289 292 292 293 294 294 295 297 297 296 297 297 295 293 292 289 289 289 289 288 288 288 287 286 285 284 284 284 283 283 283 282 283 283
289 288 287 289 292 290 288 289 290 293 293 294 296 297 294 291 291 292 292 292 293 296 296 296 297 297 296 293 290 289 289 288 287 287 286 286 286 286 285 284 284 284 284 282 282 282 281 280 282
287 292 292 290 287 284 288 284 288 290 291 292 296 295 292 291 292 292 292 291 293 296 297 297 296 293 292 292 290 288 287 285 285 285 286 285 285 285 285 284 284 284 283 282 282 282 281 280 279
290 293 291 289 286 284 284 283 285 289 289 292 296 295 290 291 292 291 291 292 293 296 296 295 293 292 292 291 290 288 285 285 285 285 284 283 283 284 284 284 283 283 283 282 281 281 281 281 280
293 290 289 286 284 280 285 284 289 289 292 292 292 289 289 289 291 291 291 292 292 294 293 292 292 291 292 290 289 287 285 284 283 282 282 282 282 282 282 282 281 281 281 281 280 279 279 278 278
290 287 280 278 277 280 284 283 289 291 293 293 293 287 287 290 290 289 289 289 291 293 292 292 292 290 289 289 287 286 285 284 282 282 281 281 281 280 280 280 280 280 280 280 279 278 277 277 276
287 288 282 274 275 278 283 280 286 291 291 290 291 288 287 288 289 288 288 288 289 291 291 291 289 288 288 287 286 286 285 283 282 282 282 281 281 280 280 279 279 279 278 278 277 277 276 276 275
286 285 291 284 275 276 282 285 291 291 288 287 286 286 286 287 287 287 287 287 287 287 289 289 288 287 287 287 286 286 284 283 282 281 281 281 280 280 279 278 277 277 277 277 276 275 274 274 275
289 291 283 285 276 275 279 281 286 289 289 287 285 284 284 284 285 284 285 286 286 287 286 288 288 287 287 286 286 284 283 282 281 281 280 279 279 279 278 277 276 276 276 275 275 274 274 274 274
287 286 287 288 284 277 274 281 288 289 289 288 286 286 284 284 284 284 284 284 285 285 286 287 287 286 285 286 284 282 281 281 281 279 279 278 278 277 277 277 276 275 275 274 274 273 273 273 273
292 290 290 284 280 281 280 284 288 287 288 288 287 286 284 284 283 283 283 283 282 284 285 285 285 285 285 284 282 281 280 280 279 278 278 278 277 277 276 276 275 275 274 274 273 273 273 273 272
Wind_Speed
6 6 2 5 6 6 1 1 1 1 3 3 3 10 9 3 2 3 2 4 12 10 8 8 11 11 12 12 11 10 12 13 16 15 15 15 15 15 15 16 16 16 16 14 14 15 14 15 15
4 3 5 3 6 4 4 3 4 3 5 8 7 4 8 3 2 3 2 5 13 11 8 8 11 11 12 12 11 11 11 13 16 15 14 14 15 15 17 16 16 16 16 15 15 15 15 16 17
3 2 5 5 4 5 5 3 6 3 6 4 4 6 4 1 2 2 3 9 10 10 8 9 11 11 12 11 10 10 10 12 14 16 14 15 15 15 16 15 16 16 16 16 15 15 15 16 16
2 5 5 6 3 1 7 6 5 4 1 6 5 7 3 2 2 5 6 12 9 11 9 10 12 12 11 11 9 10 10 13 14 15 15 15 15 15 15 15 15 16 15 15 15 15 15 15 16
5 4 5 3 1 1 2 5 5 4 3 3 3 4 3 4 3 4 8 11 8 9 10 9 13 13 13 13 11 10 11 12 15 15 16 16 16 16 15 15 15 15 15 15 15 15 15 16 16
5 4 5 1 3 2 2 7 7 3 3 4 7 5 2 4 2 2 6 7 6 7 8 6 10 11 12 12 11 11 12 13 15 16 17 17 16 16 15 15 15 15 15 15 15 15 16 16 16
7 5 5 3 4 2 4 3 6 5 5 2 9 5 2 2 3 4 7 7 5 7 7 6 6 8 9 9 9 9 11 14 15 16 16 15 14 14 14 13 15 16 15 15 15 15 16 16 16
6 5 2 1 6 4 3 1 5 6 3 4 2 7 6 6 4 7 8 8 8 7 5 5 6 6 7 6 9 9 10 13 14 14 14 12 12 12 11 10 12 14 15 14 13 13 13 14 14
4 6 1 1 4 4 2 3 1 2 7 4 4 4 3 8 8 7 5 5 5 6 5 5 3 6 6 6 6 9 12 13 12 11 12 10 6 7 8 10 10 10 11 13 13 13 13 12 12
6 4 6 2 2 3 3 4 6 4 4 3 3 3 4 4 6 8 6 5 4 4 5 4 4 3 4 5 6 7 6 7 7 7 7 6 6 6 6 9 10 8 9 10 14 15 13 9 4
3 5 4 2 2 1 3 0 4 8 3 7 9 9 4 5 7 8 5 4 4 3 3 5 5 4 3 3 4 2 4 4 5 8 6 7 6 5 4 4 3 4 7 4 7 6 4 6 4
2 1 3 2 3 2 3 1 3 5 5 5 10 8 6 8 8 8 7 5 4 3 3 5 4 3 5 4 4 4 5 3 3 5 8 6 4 5 4 4 5 3 3 5 4 3 5 6 6
2 1 2 1 4 4 2 4 5 5 4 6 9 8 10 8 7 5 6 5 4 3 2 5 3 4 4 7 5 5 5 4 4 4 7 7 5 6 5 2 7 3 4 5 5 4 5 5 5
2 0 4 4 5 2 5 4 4 2 7 7 8 9 8 9 9 6 6 5 4 4 3 2 3 4 6 6 7 5 5 5 5 5 6 8 7 6 6 4 5 6 6 5 5 4 5 5 5
1 4 6 6 5 5 4 7 11 6 9 9 9 8 8 9 8 8 6 6 6 2 4 5 5 6 8 8 6 6 5 6 6 6 9 9 8 9 7 5 6 4 6 7 5 5 5 6 4
2 3 2 4 7 3 6 11 6 9 13 11 10 8 9 8 8 6 7 6 5 5 5 5 6 6 8 8 6 6 6 7 8 6 8 8 9 10 8 8 6 5 7 6 5 5 4 5 5
4 4 5 9 7 5 5 9 4 6 9 9 9 10 9 7 6 6 7 7 6 6 6 6 7 8 10 9 8 8 10 7 7 8 7 9 10 10 9 7 6 6 8 7 4 7 4 4 5
6 4 5 7 3 3 4 13 6 6 9 13 11 10 9 11 11 8 8 6 6 6 6 6 7 9 10 9 8 8 8 7 7 8 8 10 9 11 9 8 8 7 7 6 6 7 7 5 3
4 5 5 5 5 4 9 14 16 10 7 9 11 12 14 15 8 7 7 7 7 6 8 8 10 9 8 8 8 6 6 7 8 8 11 10 10 10 10 8 8 8 9 5 5 3 10 11 6
4 5 10 8 5 8 10 14 11 9 12 15 18 17 17 10 12 9 9 8 8 9 9 9 10 10 8 5 6 5 6 7 7 8 11 9 10 10 9 9 8 7 8 9 8 6 3 7 9
7 10 5 8 6 4 7 13 12 10 11 12 18 18 15 19 18 13 12 10 8 11 11 11 11 11 8 9 9 9 10 8 7 9 9 8 9 10 9 9 8 8 7 8 7 6 6 4 7
8 7 7 6 2 6 3 21 6 8 13 13 21 16 12 16 14 14 14 11 12 11 10 12 11 10 11 12 11 14 10 12 7 8 9 8 8 9 9 9 9 9 7 8 8 7 6 4 5
6 5 5 2 2 4 4 5 2 3 7 13 20 12 12 16 19 18 15 14 11 12 12 11 11 11 11 11 10 10 11 11 8 9 13 10 7 8 7 8 8 9 7 8 9 8 9 7 6
6 6 6 5 2 9 10 9 31 6 16 9 6 6 15 16 15 13 11 12 11 11 11 11 14 12 11 9 10 12 16 16 13 11 10 7 6 5 6 8 8 8 8 8 8 8 9 7 7
5 7 2 4 0 11 4 10 19 9 11 8 9 9 10 14 15 15 15 13 14 15 13 12 13 12 12 12 12 13 14 14 14 13 10 11 7 5 5 7 7 7 8 8 7 8 8 6 5
8 10 7 8 5 5 3 11 9 6 7 8 7 9 10 12 13 15 16 14 15 16 15 14 14 13 14 13 14 13 13 9 9 10 9 8 8 7 7 8 8 8 8 7 6 6 6 5 5
5 7 7 3 3 1 7 9 12 10 7 3 2 7 11 11 11 13 12 13 13 14 16 16 16 15 15 15 14 14 11 12 11 11 9 8 8 7 8 8 9 7 8 7 7 6 5 5 5
8 7 4 2 4 7 6 8 13 7 10 6 7 9 8 8 11 11 12 13 10 10 9 12 14 16 16 15 13 12 12 11 11 11 11 11 9 9 9 9 8 8 7 6 6 5 4 6 4
4 4 3 4 5 5 3 9 8 6 6 9 10 9 11 13 13 13 11 10 12 10 12 12 13 15 14 13 12 12 11 11 10 10 10 10 10 9 9 9 9 8 7 5 6 6 6 7 5
2 8 7 5 6 5 1 17 2 3 8 7 7 8 8 9 10 10 10 10 9 11 14 14 13 15 13 12 14 13 13 11 11 10 9 9 10 7 9 8 8 7 7 6 6 7 5 5 4
Wind_Direction
326 325 83 42 58 65 309 95 126 99 56 348 43 96 115 69 60 185 266 167 138 141 141 138 130 124 122 120 121 123 120 118 108 99 91 85 84 83 81 72 68 67 68 67 68 66 66 59 54
336 346 43 82 84 77 280 293 132 183 131 120 86 85 46 55 78 135 89 152 138 141 144 141 139 131 128 127 128 125 129 125 119 111 94 90 86 84 79 73 71 69 66 66 67 64 61 59 55
315 48 81 92 113 159 174 213 175 196 139 161 86 55 85 17 341 176 126 150 139 141 147 146 146 140 136 130 130 126 130 126 120 112 103 94 92 87 81 79 75 71 70 68 67 64 58 57 52
51 13 31 84 145 243 162 191 206 133 57 83 121 69 36 310 196 185 130 155 148 149 155 162 156 149 143 131 126 126 129 127 126 117 109 104 100 94 89 83 79 76 74 72 68 66 60 56 54
37 57 57 74 334 96 139 185 184 134 140 66 127 138 77 347 33 77 123 158 153 160 157 170 164 155 149 141 139 135 135 136 132 121 116 111 107 102 96 90 84 80 77 73 70 65 59 55 56
43 91 61 131 230 225 228 176 139 144 136 171 77 95 184 302 73 46 116 136 152 133 157 163 154 142 142 145 147 148 144 142 137 127 124 119 115 110 105 100 92 86 83 80 75 69 63 60 56
108 83 177 161 190 179 208 163 118 152 139 92 143 102 222 265 129 116 99 99 105 126 127 124 145 140 140 148 152 152 147 145 139 132 127 121 118 115 109 100 94 88 81 77 71 67 62 60 58
102 92 100 188 189 211 241 52 124 138 179 116 91 167 188 223 139 97 77 71 68 53 49 139 144 153 146 160 159 150 143 141 140 137 135 131 123 118 106 90 91 93 92 83 76 72 65 63 59
99 64 135 237 173 211 191 138 3 113 96 57 6 139 188 151 114 101 101 78 64 51 39 35 166 161 156 164 170 156 145 143 138 134 126 115 116 111 112 107 94 92 91 89 78 73 65 56 47
84 102 209 205 190 204 193 174 164 123 123 57 45 27 76 104 133 132 132 122 108 77 44 27 39 63 145 168 158 149 140 146 139 133 131 120 111 104 89 93 88 66 56 73 75 62 54 46 40
148 164 208 221 176 127 169 88 201 126 225 194 185 178 144 123 125 133 135 143 126 93 37 24 13 350 102 84 124 105 109 127 132 134 113 112 107 103 93 80 48 73 50 39 61 56 42 40 40
120 203 213 183 149 136 179 279 233 186 222 176 176 152 133 139 144 147 152 147 132 97 45 349 357 24 71 77 82 92 98 90 100 132 131 130 121 103 77 91 51 28 85 74 51 56 52 35 38
160 294 293 186 197 194 149 222 221 226 170 117 128 139 152 151 149 145 137 126 134 101 35 4 347 101 100 95 88 83 87 88 92 100 135 127 112 109 92 40 105 37 32 55 44 39 49 36 29
180 178 282 280 248 237 181 237 158 218 159 153 149 160 167 164 165 139 153 151 138 126 85 71 81 79 99 90 89 87 79 81 71 76 86 103 110 99 97 98 51 70 61 51 54 36 39 32 28
156 320 327 232 220 219 143 287 233 170 161 173 178 173 175 182 172 176 171 159 156 136 116 101 96 80 94 95 91 85 84 82 78 72 73 90 99 100 93 81 65 52 62 63 52 40 40 41 28
3 53 348 284 141 237 128 264 258 169 163 193 192 191 193 189 180 169 160 150 152 138 127 96 97 98 98 98 95 93 83 82 83 82 74 76 88 90 88 79 65 46 64 61 44 33 34 40 42
359 246 217 310 196 139 166 260 254 167 178 199 198 202 201 185 172 176 166 158 158 152 140 115 110 115 107 98 93 91 86 86 86 80 91 80 79 83 86 83 69 67 67 55 40 48 48 35 22
199 219 247 242 216 124 226 261 270 195 194 213 208 208 204 196 193 174 161 153 144 142 130 119 118 118 112 107 100 90 84 77 75 80 75 82 82 84 87 81 73 70 70 50 45 54 46 61 22
159 189 229 242 230 195 227 238 248 213 230 235 227 214 210 206 162 162 157 147 140 143 145 143 135 134 128 126 118 103 108 101 84 79 81 82 83 82 86 81 79 68 67 54 41 51 44 33 5
238 253 260 298 250 187 261 250 242 209 221 219 224 222 208 171 166 169 161 159 163 159 157 151 147 143 140 130 113 117 114 95 97 92 77 72 78 83 84 88 77 73 78 60 45 39 62 46 20
225 223 238 226 310 249 297 266 234 244 218 227 235 230 204 188 172 168 171 171 164 166 165 159 156 148 140 125 115 109 103 99 109 96 89 69 80 80 87 87 90 84 80 73 60 47 56 95 36
234 199 199 240 310 259 100 292 227 228 232 225 237 227 181 174 168 168 171 171 174 169 164 160 155 140 137 139 140 139 137 130 120 110 107 91 81 84 86 88 87 85 81 77 70 55 55 66 57
231 172 197 220 243 338 171 297 55 140 240 241 243 231 183 180 171 171 172 170 170 160 162 158 144 141 139 143 148 134 123 118 121 111 107 100 82 76 77 82 86 83 81 77 74 67 65 61 77
146 82 48 57 72 265 180 178 284 209 232 251 281 179 172 170 168 159 155 155 161 157 155 153 150 145 146 142 138 137 136 138 134 128 118 110 99 86 74 83 85 84 84 82 79 73 68 69 71
118 103 304 329 12 249 305 212 251 304 287 229 261 194 176 164 159 155 156 159 161 163 160 157 155 149 142 139 137 139 137 135 132 131 131 131 124 115 102 96 89 88 88 85 84 81 75 66 75
187 158 165 216 211 280 336 243 254 244 271 301 261 165 155 164 162 161 162 160 163 163 162 158 152 145 142 142 141 143 140 139 138 136 135 129 129 125 114 103 96 94 93 96 95 92 89 85 85
195 202 196 66 94 323 227 290 283 257 277 286 161 136 165 165 161 157 157 160 162 162 163 158 152 151 155 152 146 145 143 141 141 134 129 128 125 125 120 113 108 103 101 98 95 93 95 97 91
164 164 94 90 210 236 271 262 238 278 260 212 190 186 173 149 156 159 163 162 162 163 152 152 154 155 153 150 149 144 144 140 137 135 135 137 131 128 127 123 116 107 100 103 110 106 101 88 67
150 179 202 136 169 197 286 257 211 234 279 231 209 189 182 172 168 169 169 165 158 156 156 153 152 150 149 148 144 140 141 139 137 139 139 138 134 137 135 133 126 119 118 119 121 108 87 78 81
340 183 138 183 209 233 152 267 126 230 283 239 203 178 169 171 171 167 161 161 157 160 164 160 157 153 156 150 145 145 142 141 141 142 141 142 140 138 136 131 125 126 124 130 112 92 91 90 71